Location: Gleizolles
(44.4833°N, 6.7667°E)
Time: 04:03:03
(UTC+00:00)

Vanguard 1 Rocket - Pass Details

Date: 28 June 2024
Orbit: 650 x 4219 km, 34.3° (Epoch: 15 July)

Event Time Altitude Azimuth Distance (km) Brightness Sun altitude
Rises 23:43:02 0° 232° (SW) 4,518 - -22.3°
Reaches altitude 10° 23:45:35 10° 226° (SW) 3,871 - -22.3°
Exits shadow 23:48:46 25° 215° (SW) 3,248 9.7 -22.2°
Maximum altitude 23:55:54 48° 156° (SSE) 3,026 9.6 -22.2°
Drops below altitude 10° 00:14:52 10° 90° (E) 6,846 11.9 -21.7°
Sets 00:21:17 0° 87° (E) 8,209 12.4 -21.5°
